Miscellaneous Local Product
Issued by NWS North Platte, NE

Home | Current Version | Previous Version | Text Only | Print | Product List | Glossary On
Versions: 1 2 3 4 5 6 7 8 9 10 11 12 13 14 15 16 17 18 19 20 21 22 23 24 25 26 27 28 29 30 31 32 33 34 35 36 37 38 39 40 41 42 43 44 45 46 47 48 49 50
246
AXUS43 KLBF 260410
MISLBF


WESTERN AND NORTH CENTRAL NEBRASKA HOURLY WEATHER ROUNDUP
NATIONAL WEATHER SERVICE NORTH PLATTE NE
1100 PM CDT THU AUG 25 2016

NOTE: "FAIR" INDICATES FEW OR NO CLOUDS BELOW 12,000 FEET WITH NO
SIGNIFICANT WEATHER AND/OR OBSTRUCTIONS TO VISIBILITY.

NOTE: STATIONS NOT REPORTING VARIABLES SUCH AS SKY/WEATHER OR
PRESSURE ARE PROVIDED BY RAWS AND APRS NETWORKS AND ARE NOT UNDER
NATIONAL WEATHER SERVICE QUALITY CONTROL.

...OBSERVATIONS IN AND NEAR THE EASTERN PANHANDLE OF NEBRASKA...

CITY           SKY/WX    TMP DP  RH WIND       PRES   REMARKS
PINE RIDGE     CLOUDY    54  50  86 E6        30.21F
CHADRON        CLEAR     55  48  77 CALM      30.19F
ALLIANCE       CLEAR     56  47  71 E8        30.20S
SIDNEY         PTCLDY    62  47  57 SE14      30.22S
CRESCENT LAKE    N/A     60  44  56 E9          N/A
$$

...OBSERVATIONS IN NORTHERN NEBRASKA AND FAR SOUTHERN SOUTH DAKOTA...

CITY           SKY/WX    TMP DP  RH WIND       PRES   REMARKS
WINNER         FAIR      57  47  69 E5        30.20S
VALENTINE      PTCLDY    54  46  74 CALM      30.22R
THEDFORD       CLEAR     58  49  71 E7        30.23S
AINSWORTH      CLOUDY    58  52  81 NE3       30.22S
O`NEILL        CLEAR     59  51  75 CALM      30.21S
ORD            CLEAR     57  53  86 CALM      30.19R
BROKEN BOW     CLEAR     58  52  80 NE6       30.20S
VALENTINE NWR    N/A     58  49  72 CALM        N/A
BUTTE            N/A     61  49  63 NW3         N/A
HALSEY           N/A     61  47  60 E3          N/A
EWING            N/A     57  53  88 CALM        N/A
$$

...OBSERVATIONS IN SOUTHWEST NEBRASKA AND FAR NORTHEAST COLORADO...

CITY           SKY/WX    TMP DP  RH WIND       PRES   REMARKS
HOLYOKE        FAIR      61  48  63 SE7       30.20S
IMPERIAL       PTCLDY    58  49  72 SE8       30.21R
OGALLALA       MOCLDY    65  50  57 E7        30.20S
NORTH PLATTE   CLEAR     56  52  86 E5        30.21R
MCCOOK         CLOUDY    62  54  74 E7        30.19R
LEXINGTON      PTCLDY    62  55  77 E6        30.20R
STAPLETON        N/A     59  51  74 CALM        N/A
GOTHENBURG       N/A     63  53  69 E3          N/A
CALLAWAY         N/A     57  53  86 E5          N/A
$$

...OBSERVATIONS IN CENTRAL LINCOLN COUNTY AREA...

CITY           SKY/WX    TMP DP  RH WIND       PRES   REMARKS
N.P. AIRPORT   CLEAR     56  52  86 E5        30.21R
N.P. DOWNTOWN    N/A     64  53  67 CALM        N/A
N.P. SOUTHEAST   N/A     62  53  73 CALM        N/A
N.P. HILLCREST   N/A     61  51  70 E8          N/A
$$

...SOME OBSERVATIONS FROM AROUND THE REGION...

CITY           SKY/WX    TMP DP  RH WIND       PRES   REMARKS
DENVER         CLOUDY    50  48  93 SE8       30.24S
LARAMIE        CLOUDY    53  41  63 SE23G30   30.26S
CHEYENNE       CLOUDY    56  46  69 S10       30.25S
SCOTTSBLUFF    CLOUDY    60  46  59 E9        30.19R
RAPID CITY     CLEAR     50  44  80 CALM      30.19F
BISMARCK       CLEAR     54  47  77 CALM      30.13R
PIERRE         CLEAR     53  47  79 SE3       30.18R
SIOUX FALLS    CLEAR     59  54  83 CALM      30.18R
OMAHA          PTCLDY    64  60  87 N7        30.14S
GRAND ISLAND   CLOUDY    60  56  86 E5        30.19S
KANSAS CITY    CLOUDY    71  65  81 NE8       30.10S
WICHITA        CLOUDY    75  67  76 NE12      30.08S
OKLAHOMA CITY  MOCLDY    75  65  70 N13       30.07R
DALLAS         MOCLDY    82  72  71 SE8       30.04R
AMARILLO       LGT RAIN  62  60  93 SE7       30.19F
DODGE CITY     CLOUDY    66  63  90 NE3       30.15R
HAYS           PTCLDY    64  54  68 NE7       30.16S
GOODLAND       CLOUDY    56  52  86 SE5       30.21S
$$




USA.gov is the U.S. government's official web portal to all federal, state and local government web resources and services.